Regional Weather Roundup
Issued by NWS Newport/Morehead, NC

Current Version | Previous Version | Graphics & Text | Print | Product List | Glossary Off
Versions: 1 2 3 4 5 6 7 8 9 10 11 12 13 14 15 16 17 18 19 20 21 22 23 24 25 26 27 28 29 30 31 32 33 34 35 36 37 38 39 40 41 42 43 44 45 46 47 48 49 50

000
ASUS42 KMHX 240210
RWRMHX
WEATHER ROUNDUP FOR EASTERN NORTH CAROLINA
NATIONAL WEATHER SERVICE NEWPORT/MOREHEAD CITY NC
1000 PM EDT THU OCT 23 2014

NOTE: "FAIR" INDICATES FEW OR NO CLOUDS BELOW 12,000 FEET
WITH NO SIGNIFICANT WEATHER AND/OR OBSTRUCTIONS TO VISIBILITY

NCZ015>017-031-032-045>047-102-103-240300-
NORTH COAST

CITY           SKY/WX    TMP DP  RH WIND       PRES   REMARKS
EDENTON        CLEAR     54  50  87 CALM      29.95R
ELIZABETH CITY CLEAR     56  47  71 W7        29.93R
KITTY HAWK     PTCLDY    60  49  68 NW6       29.91R
MANTEO         CLEAR     61  49  65 NW9       29.92S

$$

NCZ045>047-081-094-103-104-240300-
CENTRAL COAST

CITY           SKY/WX    TMP DP  RH WIND       PRES   REMARKS
FRISCO         CLEAR     61  52  72 W7        29.93R
SWANQUARTER    NOT AVBL

$$

NCZ095-097-098-100-101-240300-
SOUTHERN COAST

CITY           SKY/WX    TMP DP  RH WIND       PRES   REMARKS
BEAUFORT       CLEAR     60  50  69 W9        29.97R
CEDAR ISLAND   NOT AVBL
JACKSONVILLE   CLEAR     53  49  86 W3        29.97R
PINEY ISLAND   CLEAR     59  51  75 SW7       29.96R
WILMINGTON     CLEAR     57  48  72 W8        29.99R


$$

NCZ011>013-027>030-043-044-078>080-089-090>093-098-240300-
COASTAL PLAIN

CITY           SKY/WX    TMP DP  RH WIND       PRES   REMARKS
AHOSKIE        CLEAR     49  46  88 CALM      29.96R
CLINTON        CLEAR     52  49  92 CALM      30.00R
ELIZABETHTOWN  CLEAR     58  46  66 NW3       29.99R
GOLDSBORO      CLEAR     55  54  95 W5        29.97R
GREENVILLE     CLEAR     57  46  67 W3        29.99R
HAVELOCK       CLEAR     53  49  86 SW6       29.98R
KENANSVILLE    CLEAR     50  47  88 CALM      29.99R
KINSTON        NOT AVBL
NEW BERN       CLEAR     56  49  77 SW5       29.98R
RICHLANDS      CLEAR     48  45  87 CALM      29.99R
ROCKY MOUNT    CLEAR     57  45  64 NW8       29.98R
WASHINGTON     CLEAR     52  48  87 CALM      29.96R
WHITEVILLE     CLEAR     54  47  76 CALM      30.00R

$$

AMZ130-135-150-152-154-156-158-170-250-252-270-ANZ085-086-088-633-658-670-240300-
MARINE OBSERVATIONS

STATION/POSITION TIME  TEMP    WIND        PRES    WAVE   SWELL
                       AIR SEA DIR/SP/G            HT/PER HT/PER
                 (UTC) (F)     (DEG/KT/KT) (MB)    (FT/S) (FT/S)
CHESAPEAKE LIGHT 0100   63     330/ 26/ 28 1011.8
64 E VA BEACH    0200   64 67  330/ 25/ 31 1010.3    8/ 7   2/15
DUCK             0200   60 66  300/  9/ 11 1012.2
2 E DUCK         0100                        N/A     4/ 6
10 NE DUCK       0200      68                N/A     5/ 7   2/11
OREGON INLET     0200   60 64  290/  7/ 12 1013.0
13E OREGON INLT  0200      70                N/A     6/ 6   2/11
HATTERAS CG      0200   65 63  300/ 14/ 17 1013.9
DIAMOND BUOY     0200   65     290/ 17/ 19 1013.5    5/ 5   2/ 8
17 S OCRACOKE    0100          VRB 14/ 17  1013.5
CAPE LOOKOUT     0100   66     290/ 12/ 14 1014.0
BEAUFORT LAB     0200   63 68  290/  6/  7 1014.0
30 SE NEW RIVER  0200   69 75  310/ 16/ 21 1014.4    3/11   2/11
5 SE WRIGHTSVLE  0200   62 72  300/ 14/ 16   N/A
225 S CAPE HAT   0106   70 78  290/ 12/ 16 1015.4    7/11   7/11
41 SE CHARLESTON 0200   68 78  300/ 12/ 16 1016.1    3/12   2/12

$$



USA.gov is the U.S. government's official web portal to all federal, state and local government web resources and services.